Weather History for West Plains, MO

Change the Weather History Date:

Sunday, November 17, 2013

  Actual Average Record
Temperature  
Mean Temperature 65 °F 46 °F  
Max Temperature 78 °F 56 °F 78 °F (2013)
Min Temperature 52 °F 36 °F 8 °F (1959)
Degree Days  
Heating Degree Days 0 19  
Month to date heating degree days 286 266  
Since 1 July heating degree days 559 569  
Cooling Degree Days 0 0  
Month to date cooling degree days 0 0  
Year to date cooling degree days 1073 1352  
Growing Degree Days 16 (Base 50)    
Moisture  
Dew Point 49 °F    
Average Humidity 54    
Maximum Humidity 93    
Minimum Humidity 15    
Precipitation  
Precipitation 0.00 in 0.16 in 1.95 in (2003)
Month to date precipitation 1.48 2.53  
Year to date precipitation 48.87 40.53  
Sea Level Pressure  
Sea Level Pressure 29.69 in    
Wind  
Wind Speed 13 mph (SW)    
Max Wind Speed 30 mph    
Max Gust Speed 44 mph    
Visibility 10 miles    
Events      
T = Trace of Precipitation, MM = Missing Value Source: NWS Daily Summary

Daily Weather History Graph

Daily Weather History Graph

Search for Another Location

Airport:

Trip Planner

Search our weather history database for the weather conditions in past years. The results will help you decide how hot, cold, wet, or windy it might be!

Date:

Astronomy

Nov. 17, 2013 Rise Set
Actual Time 6:48 AM CST 4:56 PM CST
Civil Twilight 6:20 AM CST 5:24 PM CST
Nautical Twilight 5:49 AM CST 5:55 PM CST
Astronomical Twilight 5:18 AM CST 6:26 PM CST
Moon 5:13 PM CST (11/17) 6:42 AM CST (11/17)
Length of Visible Light 11h 03m
Length of Day
10h 08m
Full, 100% of the Moon is Illuminated
Nov 17
Full
Nov 25
Last Quarter
Dec 2
New
Dec 9
First Quarter
Dec 17
Full

Hourly Weather History & Observations

Time (CST) Temp. Dew Point Humidity Pressure Visibility Wind Dir Wind Speed Gust Speed Precip Events Conditions
12:02 AM 66.0 °F 63.0 °F 90% 29.69 in 10.0 mi South 9.2 mph - N/A   Mostly Cloudy
12:39 AM 64.9 °F 63.0 °F 93% 29.67 in 10.0 mi South 9.2 mph - N/A   Mostly Cloudy
12:53 AM 64.9 °F 63.0 °F 93% 29.65 in 10.0 mi South 8.1 mph - N/A   Mostly Cloudy
1:01 AM 64.9 °F 63.0 °F 93% 29.67 in 10.0 mi South 9.2 mph - N/A   Scattered Clouds
1:53 AM 64.9 °F 63.0 °F 93% 29.64 in 10.0 mi South 10.4 mph - N/A   Mostly Cloudy
2:21 AM 66.0 °F 63.0 °F 90% 29.66 in 10.0 mi South 11.5 mph - N/A   Scattered Clouds
2:53 AM 66.0 °F 63.0 °F 90% 29.62 in 10.0 mi South 12.7 mph 19.6 mph N/A   Clear
3:51 AM 66.2 °F 64.4 °F 94% 29.63 in 10.0 mi SSW 15.0 mph 23.0 mph N/A   Mostly Cloudy
3:53 AM 66.9 °F 64.0 °F 90% 29.60 in 10.0 mi South 12.7 mph 23.0 mph N/A   Mostly Cloudy
4:20 AM 66.9 °F 64.0 °F 90% 29.62 in 10.0 mi South 15.0 mph 23.0 mph N/A   Overcast
4:53 AM 66.9 °F 64.0 °F 90% 29.59 in 10.0 mi SSW 12.7 mph 23.0 mph N/A   Mostly Cloudy
5:05 AM 66.9 °F 64.0 °F 90% 29.62 in 10.0 mi SSW 12.7 mph 24.2 mph N/A   Mostly Cloudy
5:15 AM 66.9 °F 64.0 °F 90% 29.62 in 10.0 mi SSW 11.5 mph 21.9 mph N/A   Overcast
5:53 AM 66.9 °F 64.0 °F 90% 29.59 in 10.0 mi South 12.7 mph 18.4 mph N/A   Overcast
6:53 AM 66.9 °F 64.0 °F 90% 29.58 in 10.0 mi South 12.7 mph 21.9 mph N/A   Mostly Cloudy
7:27 AM 66.9 °F 64.0 °F 90% 29.60 in 10.0 mi South 13.8 mph - N/A   Scattered Clouds
7:53 AM 66.9 °F 64.0 °F 90% 29.57 in 10.0 mi South 13.8 mph 21.9 mph N/A   Mostly Cloudy
8:20 AM 69.1 °F 64.9 °F 87% 29.60 in 10.0 mi SSW 15.0 mph 23.0 mph N/A   Mostly Cloudy
8:53 AM 70.0 °F 64.9 °F 84% 29.58 in 10.0 mi SSW 13.8 mph 21.9 mph N/A   Mostly Cloudy
9:51 AM 73.4 °F 62.6 °F 69% 29.61 in 10.0 mi SW 19.6 mph 31.1 mph N/A   Mostly Cloudy
9:53 AM 75.0 °F 63.0 °F 66% 29.58 in 10.0 mi SW 20.7 mph 31.1 mph N/A   Mostly Cloudy
10:53 AM 78.1 °F 55.9 °F 46% 29.59 in 10.0 mi WSW 16.1 mph 34.5 mph N/A   Mostly Cloudy
11:53 AM 78.1 °F 50.0 °F 37% 29.60 in 10.0 mi WSW 25.3 mph 40.3 mph N/A   Partly Cloudy
12:53 PM 77.0 °F 36.0 °F 23% 29.64 in 10.0 mi West 28.8 mph 42.6 mph N/A   Clear
1:53 PM 73.9 °F 26.1 °F 17% 29.66 in 10.0 mi WNW 21.9 mph 35.7 mph N/A   Clear
2:53 PM 72.0 °F 25.0 °F 17% 29.69 in 10.0 mi West 16.1 mph 23.0 mph N/A   Clear
3:53 PM 69.1 °F 19.9 °F 15% 29.74 in 10.0 mi WNW 13.8 mph 24.2 mph N/A   Clear
4:53 PM 64.0 °F 25.0 °F 23% 29.80 in 10.0 mi West 6.9 mph - N/A   Clear
5:53 PM 61.0 °F 28.9 °F 30% 29.84 in 10.0 mi West 8.1 mph - N/A   Clear
6:53 PM 61.0 °F 23.0 °F 23% 29.87 in 10.0 mi West 9.2 mph - N/A   Clear
7:53 PM 57.0 °F 24.1 °F 28% 29.91 in 10.0 mi West 6.9 mph - N/A   Clear
8:53 PM 57.0 °F 17.1 °F 21% 29.93 in 10.0 mi WNW 8.1 mph 19.6 mph N/A   Clear
9:53 PM 55.0 °F 16.0 °F 22% 29.96 in 10.0 mi NW 8.1 mph - N/A   Clear
10:53 PM 54.0 °F 19.0 °F 25% 29.99 in 10.0 mi NW 9.2 mph - N/A   Clear
11:53 PM 52.0 °F 21.0 °F 30% 30.02 in 10.0 mi WNW 8.1 mph - N/A   Clear